Time,TemperatureF,DewpointF,PressureIn,WindDirection,WindDirectionDegrees,WindSpeedMPH,WindSpeedGustMPH,Humidity,HourlyPrecipIn,Conditions,Clouds,dailyrainin,SoftwareType,DateUTC
2013-10-28 00:01:00,40.5,29.3,30.09,NE,45,3.6,3.6,64,0.00,,,0.00,VWS V14.01,2013-10-28 05:01:00,
2013-10-28 00:06:00,40.5,29.6,30.12,East,90,1.1,2.5,65,0.00,,,0.00,VWS V14.01,2013-10-28 05:06:00,
2013-10-28 00:12:00,40.3,29.5,30.12,ENE,68,1.6,3.1,65,0.00,,,0.00,VWS V14.01,2013-10-28 05:12:00,
2013-10-28 00:17:00,40.3,29.5,30.12,ENE,68,2.5,3.1,65,0.00,,,0.00,VWS V14.01,2013-10-28 05:17:00,
2013-10-28 00:22:00,40.1,29.3,30.12,ESE,112,3.8,4.3,65,0.00,,,0.00,VWS V14.01,2013-10-28 05:22:00,
2013-10-28 00:27:00,39.9,29.5,30.12,East,90,3.6,5.6,66,0.00,,,0.00,VWS V14.01,2013-10-28 05:27:00,
2013-10-28 00:32:00,39.7,29.3,30.12,ENE,68,3.1,5.4,66,0.00,,,0.00,VWS V14.01,2013-10-28 05:32:00,
2013-10-28 00:37:00,39.7,29.3,30.12,ENE,68,2.7,5.4,66,0.00,,,0.00,VWS V14.01,2013-10-28 05:37:00,
2013-10-28 00:42:00,39.4,29.0,30.12,East,90,1.3,2.9,66,0.00,,,0.00,VWS V14.01,2013-10-28 05:42:00,
2013-10-28 00:47:00,39.2,29.2,30.12,NW,315,2.0,3.1,67,0.00,,,0.00,VWS V14.01,2013-10-28 05:47:00,
2013-10-28 00:53:00,39.2,29.2,30.15,North,0,2.5,3.1,67,0.00,,,0.00,VWS V14.01,2013-10-28 05:53:00,
2013-10-28 00:58:00,38.8,29.2,30.15,ENE,68,2.7,3.1,68,0.00,,,0.00,VWS V14.01,2013-10-28 05:58:00,
2013-10-28 01:03:00,38.8,29.5,30.15,ENE,68,0.9,5.6,69,0.00,,,0.00,VWS V14.01,2013-10-28 06:03:00,
2013-10-28 01:08:00,38.7,29.4,30.18,East,90,1.1,3.6,69,0.00,,,0.00,VWS V14.01,2013-10-28 06:08:00,
2013-10-28 01:13:00,38.7,29.4,30.18,NW,315,0.0,3.1,69,0.00,,,0.00,VWS V14.01,2013-10-28 06:13:00,
2013-10-28 01:18:00,38.7,29.4,30.18,NE,45,0.0,2.2,69,0.00,,,0.00,VWS V14.01,2013-10-28 06:18:00,
2013-10-28 01:23:00,38.5,29.2,30.18,East,90,2.5,2.5,69,0.00,,,0.00,VWS V14.01,2013-10-28 06:23:00,
2013-10-28 01:28:00,38.1,28.9,30.18,SSW,202,0.0,0.0,69,0.00,,,0.00,VWS V14.01,2013-10-28 06:28:00,
2013-10-28 01:33:00,38.1,28.9,30.18,East,90,0.0,1.3,69,0.00,,,0.00,VWS V14.01,2013-10-28 06:33:00,
2013-10-28 01:38:00,38.1,29.6,30.18,NNE,22,1.6,3.4,71,0.00,,,0.00,VWS V14.01,2013-10-28 06:38:00,
2013-10-28 01:44:00,38.1,29.6,30.18,ENE,68,0.0,0.0,71,0.00,,,0.00,VWS V14.01,2013-10-28 06:44:00,
2013-10-28 01:49:00,38.1,29.9,30.18,NNE,22,2.7,3.4,72,0.00,,,0.00,VWS V14.01,2013-10-28 06:49:00,
2013-10-28 01:54:00,38.1,29.9,30.15,NE,45,2.0,3.4,72,0.00,,,0.00,VWS V14.01,2013-10-28 06:54:00,
2013-10-28 01:59:00,37.9,29.7,30.15,SE,135,1.1,2.5,72,0.00,,,0.00,VWS V14.01,2013-10-28 06:59:00,
2013-10-28 02:04:00,37.9,29.7,30.15,NNW,338,2.0,2.9,72,0.00,,,0.00,VWS V14.01,2013-10-28 07:04:00,
2013-10-28 02:09:00,37.6,29.7,30.18,ENE,68,1.1,3.1,73,0.00,,,0.00,VWS V14.01,2013-10-28 07:09:00,
2013-10-28 02:14:00,37.8,30.2,30.18,NNW,338,1.3,5.8,74,0.00,,,0.00,VWS V14.01,2013-10-28 07:14:00,
2013-10-28 02:19:00,37.9,30.4,30.18,ENE,68,2.2,4.9,74,0.00,,,0.00,VWS V14.01,2013-10-28 07:19:00,
2013-10-28 02:24:00,37.9,30.4,30.21,ENE,68,3.1,5.8,74,0.00,,,0.00,VWS V14.01,2013-10-28 07:24:00,
2013-10-28 02:29:00,37.9,30.1,30.21,NE,45,2.7,6.0,73,0.00,,,0.00,VWS V14.01,2013-10-28 07:29:00,
2013-10-28 02:35:00,37.9,30.4,30.21,East,90,4.3,6.0,74,0.00,,,0.00,VWS V14.01,2013-10-28 07:35:00,
2013-10-28 02:40:00,38.1,30.2,30.21,ESE,112,2.5,6.5,73,0.00,,,0.00,VWS V14.01,2013-10-28 07:40:00,
2013-10-28 02:45:00,38.1,29.9,30.21,SSE,158,3.4,7.4,72,0.00,,,0.00,VWS V14.01,2013-10-28 07:45:00,
2013-10-28 02:50:00,38.1,29.6,30.21,ENE,68,3.8,8.5,71,0.00,,,0.00,VWS V14.01,2013-10-28 07:50:00,
2013-10-28 02:55:00,37.9,29.0,30.24,ENE,68,0.9,4.9,70,0.00,,,0.00,VWS V14.01,2013-10-28 07:55:00,
2013-10-28 03:00:00,37.9,29.0,30.24,ENE,68,4.9,4.9,70,0.00,,,0.00,VWS V14.01,2013-10-28 08:00:00,
2013-10-28 03:05:00,37.8,28.9,30.24,NE,45,2.9,5.4,70,0.00,,,0.00,VWS V14.01,2013-10-28 08:05:00,
2013-10-28 03:10:00,37.4,28.2,30.24,ENE,68,3.4,4.0,69,0.00,,,0.00,VWS V14.01,2013-10-28 08:10:00,
2013-10-28 03:15:00,37.0,28.2,30.24,NE,45,2.9,5.4,70,0.00,,,0.00,VWS V14.01,2013-10-28 08:15:00,
2013-10-28 03:20:00,36.9,27.7,30.24,ENE,68,0.9,5.6,69,0.00,,,0.00,VWS V14.01,2013-10-28 08:20:00,
2013-10-28 03:25:00,36.7,27.5,30.24,ENE,68,1.1,3.1,69,0.00,,,0.00,VWS V14.01,2013-10-28 08:25:00,
2013-10-28 03:30:00,36.3,27.5,30.24,NE,45,3.1,6.0,70,0.00,,,0.00,VWS V14.01,2013-10-28 08:30:00,
2013-10-28 03:35:00,36.3,27.5,30.21,East,90,4.0,4.0,70,0.00,,,0.00,VWS V14.01,2013-10-28 08:35:00,
2013-10-28 03:40:00,36.1,27.3,30.21,NE,45,4.9,4.9,70,0.00,,,0.00,VWS V14.01,2013-10-28 08:40:00,
2013-10-28 03:45:00,36.0,27.5,30.21,ENE,68,3.1,3.1,71,0.00,,,0.00,VWS V14.01,2013-10-28 08:45:00,
2013-10-28 03:51:00,35.8,27.3,30.24,ENE,68,2.0,3.6,71,0.00,,,0.00,VWS V14.01,2013-10-28 08:51:00,
2013-10-28 03:56:00,35.6,26.8,30.24,East,90,2.0,3.8,70,0.00,,,0.00,VWS V14.01,2013-10-28 08:56:00,
2013-10-28 04:01:00,35.4,27.0,30.24,NE,45,2.9,5.8,71,0.00,,,0.00,VWS V14.01,2013-10-28 09:01:00,
2013-10-28 04:06:00,35.2,26.8,30.24,ENE,68,1.3,2.2,71,0.00,,,0.00,VWS V14.01,2013-10-28 09:06:00,
2013-10-28 04:11:00,34.9,26.8,30.24,East,90,1.6,3.1,72,0.00,,,0.00,VWS V14.01,2013-10-28 09:11:00,
2013-10-28 04:16:00,34.7,26.6,30.24,ENE,68,2.7,2.7,72,0.00,,,0.00,VWS V14.01,2013-10-28 09:16:00,
2013-10-28 04:21:00,34.5,26.8,30.27,NW,315,5.8,5.8,73,0.00,,,0.00,VWS V14.01,2013-10-28 09:21:00,
2013-10-28 04:26:00,34.3,26.6,30.27,ESE,112,2.0,2.9,73,0.00,,,0.00,VWS V14.01,2013-10-28 09:26:00,
2013-10-28 04:31:00,34.3,26.6,30.27,East,90,2.5,3.1,73,0.00,,,0.00,VWS V14.01,2013-10-28 09:31:00,
2013-10-28 04:36:00,34.2,26.8,30.27,ENE,68,6.0,6.0,74,0.00,,,0.00,VWS V14.01,2013-10-28 09:36:00,
2013-10-28 04:41:00,34.0,26.6,30.27,NE,45,2.7,2.7,74,0.00,,,0.00,VWS V14.01,2013-10-28 09:41:00,
2013-10-28 04:46:00,33.8,26.4,30.27,ENE,68,1.6,4.0,74,0.00,,,0.00,VWS V14.01,2013-10-28 09:46:00,
2013-10-28 04:51:00,33.8,26.4,30.27,NE,45,3.8,3.8,74,0.00,,,0.00,VWS V14.01,2013-10-28 09:51:00,
2013-10-28 04:56:00,33.6,26.6,30.27,ENE,68,1.3,3.8,75,0.00,,,0.00,VWS V14.01,2013-10-28 09:56:00,
2013-10-28 05:01:00,33.4,26.4,30.27,ENE,68,3.4,3.4,75,0.00,,,0.00,VWS V14.01,2013-10-28 10:01:00,
2013-10-28 05:06:00,33.3,26.2,30.30,ENE,68,1.6,2.9,75,0.00,,,0.00,VWS V14.01,2013-10-28 10:06:00,
2013-10-28 05:11:00,33.1,26.0,30.30,East,90,0.0,1.6,75,0.00,,,0.00,VWS V14.01,2013-10-28 10:11:00,
2013-10-28 05:16:00,33.1,26.0,30.30,NE,45,2.7,2.7,75,0.00,,,0.00,VWS V14.01,2013-10-28 10:16:00,
2013-10-28 05:22:00,33.1,26.0,30.30,NNE,22,1.6,4.9,75,0.00,,,0.00,VWS V14.01,2013-10-28 10:22:00,
2013-10-28 05:27:00,32.9,25.9,30.30,NNE,22,2.9,3.4,75,0.00,,,0.00,VWS V14.01,2013-10-28 10:27:00,
2013-10-28 05:32:00,32.7,26.0,30.30,NE,45,3.8,4.3,76,0.00,,,0.00,VWS V14.01,2013-10-28 10:32:00,
2013-10-28 05:37:00,32.7,25.7,30.30,ENE,68,3.4,4.0,75,0.00,,,0.00,VWS V14.01,2013-10-28 10:37:00,
2013-10-28 05:42:00,32.5,25.5,30.30,ENE,68,4.0,4.0,75,0.00,,,0.00,VWS V14.01,2013-10-28 10:42:00,
2013-10-28 05:47:00,32.4,25.3,30.30,ENE,68,2.0,3.8,75,0.00,,,0.00,VWS V14.01,2013-10-28 10:47:00,
2013-10-28 05:52:00,32.4,25.6,30.30,ESE,112,2.7,2.7,76,0.00,,,0.00,VWS V14.01,2013-10-28 10:52:00,
2013-10-28 05:57:00,32.2,25.5,30.30,ENE,68,0.9,3.4,76,0.00,,,0.00,VWS V14.01,2013-10-28 10:57:00,
2013-10-28 06:02:00,32.2,25.5,30.30,East,90,2.7,3.4,76,0.00,,,0.00,VWS V14.01,2013-10-28 11:02:00,
2013-10-28 06:07:00,32.0,25.3,30.30,ENE,68,3.6,3.6,76,0.00,,,0.00,VWS V14.01,2013-10-28 11:07:00,
2013-10-28 06:12:00,31.8,25.1,30.30,ENE,68,1.6,2.9,76,0.00,,,0.00,VWS V14.01,2013-10-28 11:12:00,
2013-10-28 06:17:00,31.6,25.0,30.30,NE,45,2.9,2.9,76,0.00,,,0.00,VWS V14.01,2013-10-28 11:17:00,
2013-10-28 06:22:00,31.5,24.8,30.33,North,0,3.1,3.1,76,0.00,,,0.00,VWS V14.01,2013-10-28 11:22:00,
2013-10-28 06:27:00,31.3,24.6,30.33,NE,45,0.0,3.6,76,0.00,,,0.00,VWS V14.01,2013-10-28 11:27:00,
2013-10-28 06:32:00,31.3,24.6,30.33,East,90,2.0,2.5,76,0.00,,,0.00,VWS V14.01,2013-10-28 11:32:00,
2013-10-28 06:37:00,31.3,24.9,30.33,ENE,68,2.0,5.6,77,0.00,,,0.00,VWS V14.01,2013-10-28 11:37:00,
2013-10-28 06:42:00,31.3,24.9,30.33,ENE,68,1.1,3.6,77,0.00,,,0.00,VWS V14.01,2013-10-28 11:42:00,
2013-10-28 06:47:00,31.1,24.8,30.33,ENE,68,3.8,5.8,77,0.00,,,0.00,VWS V14.01,2013-10-28 11:47:00,
2013-10-28 06:53:00,31.1,24.8,30.36,NE,45,1.6,4.0,77,0.00,,,0.00,VWS V14.01,2013-10-28 11:53:00,
2013-10-28 06:58:00,30.7,24.4,30.36,ENE,68,2.2,2.2,77,0.00,,,0.04,VWS V14.01,2013-10-28 11:58:00,
2013-10-28 07:03:00,30.7,24.4,30.36,ENE,68,3.1,3.1,77,0.00,,,0.00,VWS V14.01,2013-10-28 12:03:00,
2013-10-28 07:08:00,30.6,24.2,30.36,ESE,112,1.6,3.6,77,0.00,,,0.00,VWS V14.01,2013-10-28 12:08:00,
2013-10-28 07:13:00,30.6,24.2,30.36,ENE,68,0.0,3.1,77,0.00,,,0.00,VWS V14.01,2013-10-28 12:13:00,
2013-10-28 07:18:00,30.4,24.0,30.36,ENE,68,1.1,2.5,77,0.00,,,0.00,VWS V14.01,2013-10-28 12:18:00,
2013-10-28 07:23:00,30.2,23.9,30.36,ENE,68,2.9,2.9,77,0.00,,,0.00,VWS V14.01,2013-10-28 12:23:00,
2013-10-28 07:28:00,30.2,24.2,30.36,NNW,338,2.9,2.9,78,0.00,,,0.00,VWS V14.01,2013-10-28 12:28:00,
2013-10-28 07:33:00,29.8,23.8,30.36,North,0,2.5,2.9,78,0.00,,,0.00,VWS V14.01,2013-10-28 12:33:00,
2013-10-28 07:38:00,29.7,23.6,30.36,ENE,68,1.6,2.9,78,0.00,,,0.00,VWS V14.01,2013-10-28 12:38:00,
2013-10-28 07:43:00,29.7,23.4,30.36,ENE,68,0.0,2.2,77,0.00,,,0.00,VWS V14.01,2013-10-28 12:43:00,
2013-10-28 07:48:00,29.5,23.2,30.36,NE,45,0.0,3.6,77,0.00,,,0.00,VWS V14.01,2013-10-28 12:48:00,
2013-10-28 07:53:00,29.5,23.2,30.36,ENE,68,0.9,2.2,77,0.00,,,0.00,VWS V14.01,2013-10-28 12:53:00,
2013-10-28 07:58:00,29.5,23.2,30.36,NNE,22,0.0,2.9,77,0.00,,,0.00,VWS V14.01,2013-10-28 12:58:00,
2013-10-28 08:03:00,29.5,23.2,30.36,ENE,68,1.1,3.1,77,0.00,,,0.00,VWS V14.01,2013-10-28 13:03:00,
2013-10-28 08:08:00,29.7,23.4,30.36,NNW,338,2.7,3.1,77,0.00,,,0.00,VWS V14.01,2013-10-28 13:08:00,
2013-10-28 08:13:00,29.8,23.5,30.36,ENE,68,3.6,3.6,77,0.00,,,0.00,VWS V14.01,2013-10-28 13:13:00,
2013-10-28 08:18:00,30.2,23.6,30.36,ENE,68,3.1,6.3,76,0.00,,,0.00,VWS V14.01,2013-10-28 13:18:00,
2013-10-28 08:24:00,30.4,23.4,30.39,East,90,2.2,3.8,75,0.00,,,0.00,VWS V14.01,2013-10-28 13:24:00,
2013-10-28 08:29:00,30.6,23.3,30.39,NNE,22,6.3,6.3,74,0.00,,,0.00,VWS V14.01,2013-10-28 13:29:00,
2013-10-28 08:34:00,30.9,23.3,30.39,ENE,68,4.0,5.6,73,0.00,,,0.00,VWS V14.01,2013-10-28 13:34:00,
2013-10-28 08:39:00,31.1,23.1,30.39,East,90,2.5,3.6,72,0.00,,,0.00,VWS V14.01,2013-10-28 13:39:00,
2013-10-28 08:44:00,31.3,23.0,30.39,East,90,2.7,4.0,71,0.00,,,0.00,VWS V14.01,2013-10-28 13:44:00,
2013-10-28 08:49:00,31.5,22.8,30.39,ENE,68,2.9,3.8,70,0.00,,,0.00,VWS V14.01,2013-10-28 13:49:00,
2013-10-28 08:54:00,31.6,22.3,30.41,NNE,22,4.3,7.4,68,0.00,,,0.00,VWS V14.01,2013-10-28 13:54:00,
2013-10-28 08:59:00,31.8,22.5,30.41,NNE,22,2.0,4.0,68,0.00,,,0.00,VWS V14.01,2013-10-28 13:59:00,
2013-10-28 09:04:00,32.0,21.9,30.41,ENE,68,3.4,4.9,66,0.00,,,0.00,VWS V14.01,2013-10-28 14:04:00,
2013-10-28 09:09:00,32.2,22.1,30.41,NE,45,1.6,6.0,66,0.00,,,0.00,VWS V14.01,2013-10-28 14:09:00,
2013-10-28 09:14:00,32.4,22.3,30.41,NE,45,1.1,3.1,66,0.00,,,0.00,VWS V14.01,2013-10-28 14:14:00,
2013-10-28 09:19:00,32.5,21.7,30.41,ENE,68,2.5,6.5,64,0.00,,,0.00,VWS V14.01,2013-10-28 14:19:00,
2013-10-28 09:24:00,32.7,21.1,30.41,ENE,68,5.8,5.8,62,0.00,,,0.00,VWS V14.01,2013-10-28 14:24:00,
2013-10-28 09:29:00,32.9,20.9,30.41,ENE,68,5.8,6.7,61,0.00,,,0.00,VWS V14.01,2013-10-28 14:29:00,
2013-10-28 09:34:00,33.3,21.3,30.41,ESE,112,3.1,5.8,61,0.00,,,0.00,VWS V14.01,2013-10-28 14:34:00,
2013-10-28 09:40:00,33.4,21.5,30.39,ENE,68,3.8,6.3,61,0.00,,,0.00,VWS V14.01,2013-10-28 14:40:00,
2013-10-28 09:45:00,33.6,20.8,30.39,East,90,5.6,8.1,59,0.00,,,0.00,VWS V14.01,2013-10-28 14:45:00,
2013-10-28 09:50:00,33.6,20.4,30.39,ENE,68,5.4,8.5,58,0.00,,,0.00,VWS V14.01,2013-10-28 14:50:00,
2013-10-28 09:55:00,33.8,20.2,30.39,ENE,68,2.7,6.0,57,0.00,,,0.00,VWS V14.01,2013-10-28 14:55:00,
2013-10-28 10:00:00,34.0,20.4,30.39,East,90,2.0,7.4,57,0.00,,,0.00,VWS V14.01,2013-10-28 15:00:00,
2013-10-28 10:05:00,34.2,20.1,30.39,ENE,68,2.9,2.9,56,0.00,,,0.00,VWS V14.01,2013-10-28 15:05:00,
2013-10-28 10:10:00,34.3,20.3,30.41,NE,45,4.3,4.3,56,0.00,,,0.00,VWS V14.01,2013-10-28 15:10:00,
2013-10-28 10:15:00,34.9,20.4,30.41,North,0,3.6,6.5,55,0.00,,,0.00,VWS V14.01,2013-10-28 15:15:00,
2013-10-28 10:20:00,35.1,20.5,30.41,ENE,68,4.3,7.6,55,0.00,,,0.00,VWS V14.01,2013-10-28 15:20:00,
2013-10-28 10:25:00,35.4,20.4,30.41,East,90,6.5,6.5,54,0.00,,,0.00,VWS V14.01,2013-10-28 15:25:00,
2013-10-28 10:30:00,35.4,20.4,30.41,ENE,68,2.7,2.9,54,0.00,,,0.00,VWS V14.01,2013-10-28 15:30:00,
2013-10-28 10:35:00,35.8,20.8,30.41,ESE,112,3.8,7.4,54,0.00,,,0.00,VWS V14.01,2013-10-28 15:35:00,
2013-10-28 10:40:00,35.8,20.3,30.41,NNW,338,4.9,7.2,53,0.00,,,0.00,VWS V14.01,2013-10-28 15:40:00,
2013-10-28 10:45:00,36.1,20.7,30.41,NNE,22,6.0,6.5,53,0.00,,,0.00,VWS V14.01,2013-10-28 15:45:00,
2013-10-28 10:51:00,36.1,20.7,30.41,NNE,22,7.2,7.2,53,0.00,,,0.00,VWS V14.01,2013-10-28 15:51:00,
2013-10-28 10:56:00,36.3,20.8,30.41,ENE,68,5.6,5.6,53,0.00,,,0.00,VWS V14.01,2013-10-28 15:56:00,
2013-10-28 11:01:00,36.7,20.7,30.41,ENE,68,3.4,6.0,52,0.00,,,0.00,VWS V14.01,2013-10-28 16:01:00,
2013-10-28 11:06:00,36.9,20.9,30.41,ENE,68,5.8,5.8,52,0.00,,,0.00,VWS V14.01,2013-10-28 16:06:00,
2013-10-28 11:11:00,37.2,21.2,30.41,SW,225,2.7,5.4,52,0.00,,,0.00,VWS V14.01,2013-10-28 16:11:00,
2013-10-28 11:16:00,37.8,21.3,30.41,ENE,68,3.6,3.6,51,0.00,,,0.00,VWS V14.01,2013-10-28 16:16:00,
2013-10-28 11:21:00,37.8,21.3,30.41,ENE,68,4.9,4.9,51,0.00,,,0.00,VWS V14.01,2013-10-28 16:21:00,
2013-10-28 11:26:00,38.5,21.9,30.41,ENE,68,4.0,6.0,51,0.00,,,0.00,VWS V14.01,2013-10-28 16:26:00,
2013-10-28 11:31:00,38.7,21.6,30.41,ENE,68,5.4,5.4,50,0.00,,,0.00,VWS V14.01,2013-10-28 16:31:00,
2013-10-28 11:36:00,38.5,21.5,30.41,NNE,22,5.8,5.8,50,0.00,,,0.00,VWS V14.01,2013-10-28 16:36:00,
2013-10-28 11:41:00,38.8,21.8,30.41,NE,45,5.6,7.4,50,0.00,,,0.00,VWS V14.01,2013-10-28 16:41:00,
2013-10-28 11:46:00,38.8,21.3,30.41,East,90,2.0,3.8,49,0.00,,,0.00,VWS V14.01,2013-10-28 16:46:00,
2013-10-28 11:51:00,39.0,22.0,30.41,East,90,0.0,2.5,50,0.00,,,0.00,VWS V14.01,2013-10-28 16:51:00,
2013-10-28 11:56:00,39.4,21.8,30.41,ENE,68,6.5,6.5,49,0.00,,,0.00,VWS V14.01,2013-10-28 16:56:00,
2013-10-28 12:01:00,39.4,21.8,30.41,ESE,112,3.4,5.4,49,0.00,,,0.00,VWS V14.01,2013-10-28 17:01:00,
2013-10-28 12:06:00,39.7,22.2,30.41,ENE,68,5.4,5.4,49,0.00,,,0.00,VWS V14.01,2013-10-28 17:06:00,
2013-10-28 12:11:00,39.9,22.3,30.41,NE,45,8.1,8.1,49,0.00,,,0.00,VWS V14.01,2013-10-28 17:11:00,
2013-10-28 12:16:00,39.9,21.8,30.41,ENE,68,3.6,6.5,48,0.00,,,0.00,VWS V14.01,2013-10-28 17:16:00,
2013-10-28 12:22:00,40.5,22.3,30.41,ENE,68,6.3,6.3,48,0.00,,,0.00,VWS V14.01,2013-10-28 17:22:00,
2013-10-28 12:27:00,40.6,22.5,30.41,ENE,68,3.1,4.9,48,0.00,,,0.00,VWS V14.01,2013-10-28 17:27:00,
2013-10-28 12:32:00,41.2,23.0,30.41,ENE,68,2.7,4.9,48,0.00,,,0.00,VWS V14.01,2013-10-28 17:32:00,
2013-10-28 12:37:00,41.2,22.5,30.41,ESE,112,2.9,6.0,47,0.00,,,0.00,VWS V14.01,2013-10-28 17:37:00,
2013-10-28 12:42:00,41.0,21.8,30.41,ENE,68,3.8,7.8,46,0.00,,,0.00,VWS V14.01,2013-10-28 17:42:00,
2013-10-28 12:47:00,41.2,22.0,30.41,ENE,68,1.3,5.8,46,0.00,,,0.00,VWS V14.01,2013-10-28 17:47:00,
2013-10-28 12:52:00,41.5,22.3,30.41,SSE,158,3.4,4.3,46,0.00,,,0.00,VWS V14.01,2013-10-28 17:52:00,
2013-10-28 12:57:00,41.7,22.5,30.41,NNE,22,4.9,6.3,46,0.00,,,0.00,VWS V14.01,2013-10-28 17:57:00,
2013-10-28 13:02:00,42.1,23.3,30.41,NE,45,4.9,4.9,47,0.00,,,0.00,VWS V14.01,2013-10-28 18:02:00,
2013-10-28 13:07:00,42.3,23.0,30.41,ENE,68,2.0,7.2,46,0.00,,,0.00,VWS V14.01,2013-10-28 18:07:00,
2013-10-28 13:12:00,42.4,23.1,30.41,ESE,112,1.1,3.6,46,0.00,,,0.00,VWS V14.01,2013-10-28 18:12:00,
2013-10-28 13:17:00,43.2,23.3,30.41,SE,135,5.8,5.8,45,0.00,,,0.00,VWS V14.01,2013-10-28 18:17:00,
2013-10-28 13:22:00,43.2,22.7,30.41,ENE,68,3.1,5.6,44,0.00,,,0.00,VWS V14.01,2013-10-28 18:22:00,
2013-10-28 13:28:00,43.0,23.1,30.41,NE,45,4.9,5.6,45,0.00,,,0.00,VWS V14.01,2013-10-28 18:28:00,
2013-10-28 13:33:00,42.8,22.4,30.41,ENE,68,4.0,4.0,44,0.00,,,0.00,VWS V14.01,2013-10-28 18:33:00,
2013-10-28 13:38:00,43.0,22.6,30.41,NNE,22,3.8,4.0,44,0.00,,,0.00,VWS V14.01,2013-10-28 18:38:00,
2013-10-28 13:43:00,43.3,22.9,30.41,ESE,112,3.1,4.7,44,0.00,,,0.00,VWS V14.01,2013-10-28 18:43:00,
2013-10-28 13:48:00,43.5,23.1,30.41,ENE,68,3.4,4.9,44,0.00,,,0.00,VWS V14.01,2013-10-28 18:48:00,
2013-10-28 13:53:00,43.5,23.1,30.41,East,90,3.1,6.0,44,0.00,,,0.00,VWS V14.01,2013-10-28 18:53:00,
2013-10-28 13:58:00,43.9,23.4,30.41,ESE,112,3.1,6.7,44,0.00,,,0.00,VWS V14.01,2013-10-28 18:58:00,
2013-10-28 14:03:00,43.9,22.9,30.41,East,90,6.3,6.3,43,0.00,,,0.00,VWS V14.01,2013-10-28 19:03:00,
2013-10-28 14:08:00,44.1,23.6,30.41,East,90,3.8,4.0,44,0.00,,,0.00,VWS V14.01,2013-10-28 19:08:00,
2013-10-28 14:13:00,44.2,23.2,30.41,NE,45,4.3,6.3,43,0.00,,,0.00,VWS V14.01,2013-10-28 19:13:00,
2013-10-28 14:18:00,44.2,23.2,30.41,North,0,3.4,6.3,43,0.00,,,0.00,VWS V14.01,2013-10-28 19:18:00,
2013-10-28 14:23:00,44.6,22.9,30.39,NE,45,0.0,0.9,42,0.00,,,0.00,VWS V14.01,2013-10-28 19:23:00,
2013-10-28 14:28:00,44.8,23.1,30.39,ENE,68,1.3,4.0,42,0.00,,,0.00,VWS V14.01,2013-10-28 19:28:00,
2013-10-28 14:33:00,44.6,22.9,30.39,WNW,292,2.5,5.8,42,0.00,,,0.00,VWS V14.01,2013-10-28 19:33:00,
2013-10-28 14:39:00,44.6,22.9,30.39,ENE,68,4.9,7.4,42,0.00,,,0.00,VWS V14.01,2013-10-28 19:39:00,
2013-10-28 14:44:00,44.8,23.1,30.39,ENE,68,2.2,7.4,42,0.00,,,0.00,VWS V14.01,2013-10-28 19:44:00,
2013-10-28 14:49:00,45.3,23.6,30.39,East,90,0.0,4.7,42,0.00,,,0.00,VWS V14.01,2013-10-28 19:49:00,
2013-10-28 14:54:00,45.5,23.8,30.39,ENE,68,2.5,4.9,42,0.00,,,0.00,VWS V14.01,2013-10-28 19:54:00,
2013-10-28 14:59:00,45.5,23.2,30.39,East,90,3.1,3.1,41,0.00,,,0.00,VWS V14.01,2013-10-28 19:59:00,
2013-10-28 15:04:00,45.9,24.1,30.39,ESE,112,2.7,4.7,42,0.00,,,0.00,VWS V14.01,2013-10-28 20:04:00,
2013-10-28 15:09:00,45.3,23.0,30.39,East,90,3.1,4.9,41,0.00,,,0.00,VWS V14.01,2013-10-28 20:09:00,
2013-10-28 15:14:00,45.3,23.0,30.39,ENE,68,4.7,4.7,41,0.00,,,0.00,VWS V14.01,2013-10-28 20:14:00,
2013-10-28 15:19:00,45.5,23.8,30.39,ENE,68,3.8,3.8,42,0.00,,,0.00,VWS V14.01,2013-10-28 20:19:00,
2013-10-28 15:24:00,45.5,23.2,30.39,ENE,68,2.0,5.8,41,0.00,,,0.00,VWS V14.01,2013-10-28 20:24:00,
2013-10-28 15:29:00,45.5,23.2,30.39,East,90,2.2,4.3,41,0.00,,,0.00,VWS V14.01,2013-10-28 20:29:00,
2013-10-28 15:34:00,45.5,23.2,30.39,ENE,68,1.3,4.7,41,0.00,,,0.00,VWS V14.01,2013-10-28 20:34:00,
2013-10-28 15:40:00,45.3,23.0,30.39,ENE,68,5.4,5.8,41,0.00,,,0.00,VWS V14.01,2013-10-28 20:40:00,
2013-10-28 15:45:00,45.1,22.9,30.39,ENE,68,2.5,5.6,41,0.00,,,0.00,VWS V14.01,2013-10-28 20:45:00,
2013-10-28 15:50:00,45.1,22.9,30.39,ESE,112,2.0,3.4,41,0.00,,,0.00,VWS V14.01,2013-10-28 20:50:00,
2013-10-28 15:55:00,45.1,22.9,30.39,ENE,68,1.3,3.4,41,0.00,,,0.00,VWS V14.01,2013-10-28 20:55:00,
2013-10-28 16:00:00,45.0,22.7,30.39,East,90,2.5,5.6,41,0.00,,,0.00,VWS V14.01,2013-10-28 21:00:00,
2013-10-28 16:05:00,44.4,22.8,30.39,NE,45,2.5,2.5,42,0.00,,,0.00,VWS V14.01,2013-10-28 21:05:00,
2013-10-28 16:10:00,43.7,22.1,30.39,East,90,2.5,2.5,42,0.00,,,0.00,VWS V14.01,2013-10-28 21:10:00,
2013-10-28 16:15:00,43.5,22.0,30.39,ENE,68,2.7,2.9,42,0.00,,,0.00,VWS V14.01,2013-10-28 21:15:00,
2013-10-28 16:20:00,43.3,21.8,30.39,NE,45,1.3,1.3,42,0.00,,,0.00,VWS V14.01,2013-10-28 21:20:00,
2013-10-28 16:25:00,43.2,21.6,30.39,East,90,2.2,2.5,42,0.00,,,0.00,VWS V14.01,2013-10-28 21:25:00,
2013-10-28 16:31:00,42.8,21.3,30.39,East,90,3.6,3.6,42,0.00,,,0.00,VWS V14.01,2013-10-28 21:31:00,
2013-10-28 16:36:00,42.6,21.7,30.39,East,90,1.1,2.0,43,0.00,,,0.00,VWS V14.01,2013-10-28 21:36:00,
2013-10-28 16:41:00,42.4,21.5,30.39,NE,45,1.6,2.0,43,0.00,,,0.00,VWS V14.01,2013-10-28 21:41:00,
2013-10-28 16:46:00,42.4,21.5,30.39,East,90,2.5,3.4,43,0.00,,,0.00,VWS V14.01,2013-10-28 21:46:00,
2013-10-28 16:51:00,42.1,21.2,30.39,NNE,22,2.5,3.8,43,0.00,,,0.00,VWS V14.01,2013-10-28 21:51:00,
2013-10-28 16:56:00,41.7,20.9,30.39,WSW,248,2.7,2.9,43,0.00,,,0.00,VWS V14.01,2013-10-28 21:56:00,
2013-10-28 17:01:00,41.4,20.6,30.39,East,90,2.5,3.1,43,0.00,,,0.00,VWS V14.01,2013-10-28 22:01:00,
2013-10-28 17:06:00,41.2,20.4,30.39,NE,45,3.6,4.0,43,0.00,,,0.00,VWS V14.01,2013-10-28 22:06:00,
2013-10-28 17:11:00,41.2,20.4,30.39,ENE,68,2.7,4.9,43,0.00,,,0.00,VWS V14.01,2013-10-28 22:11:00,
2013-10-28 17:16:00,41.0,20.8,30.39,NE,45,1.3,2.2,44,0.00,,,0.00,VWS V14.01,2013-10-28 22:16:00,
2013-10-28 17:21:00,40.8,20.6,30.39,East,90,1.3,1.3,44,0.00,,,0.00,VWS V14.01,2013-10-28 22:21:00,
2013-10-28 17:27:00,40.5,20.3,30.39,ENE,68,1.3,2.7,44,0.00,,,0.00,VWS V14.01,2013-10-28 22:27:00,
2013-10-28 17:32:00,40.3,20.1,30.39,ENE,68,0.0,0.0,44,0.00,,,0.00,VWS V14.01,2013-10-28 22:32:00,
2013-10-28 17:37:00,39.9,19.8,30.39,East,90,0.0,1.1,44,0.00,,,0.00,VWS V14.01,2013-10-28 22:37:00,
2013-10-28 17:42:00,39.7,19.6,30.39,NNE,22,0.0,0.9,44,0.00,,,0.00,VWS V14.01,2013-10-28 22:42:00,
2013-10-28 17:47:00,39.2,19.7,30.39,NE,45,2.0,2.5,45,0.00,,,0.00,VWS V14.01,2013-10-28 22:47:00,
2013-10-28 17:52:00,39.2,19.7,30.39,East,90,3.1,3.6,45,0.00,,,0.00,VWS V14.01,2013-10-28 22:52:00,
2013-10-28 17:57:00,38.8,19.3,30.39,NNW,338,0.0,3.1,45,0.00,,,0.00,VWS V14.01,2013-10-28 22:57:00,
2013-10-28 18:02:00,38.5,19.5,30.39,ENE,68,1.1,1.6,46,0.00,,,0.00,VWS V14.01,2013-10-28 23:02:00,
2013-10-28 18:07:00,38.1,19.2,30.39,ENE,68,1.6,3.8,46,0.00,,,0.00,VWS V14.01,2013-10-28 23:07:00,
2013-10-28 18:12:00,37.9,19.0,30.39,NE,45,1.3,1.6,46,0.00,,,0.00,VWS V14.01,2013-10-28 23:12:00,
2013-10-28 18:17:00,37.6,18.7,30.39,East,90,1.3,3.1,46,0.00,,,0.00,VWS V14.01,2013-10-28 23:17:00,
2013-10-28 18:23:00,37.2,18.9,30.39,NE,45,0.9,0.9,47,0.00,,,0.00,VWS V14.01,2013-10-28 23:23:00,
2013-10-28 18:28:00,36.9,18.5,30.39,NNW,338,1.1,2.2,47,0.00,,,0.00,VWS V14.01,2013-10-28 23:28:00,
2013-10-28 18:33:00,36.7,18.4,30.39,ENE,68,2.7,2.7,47,0.00,,,0.00,VWS V14.01,2013-10-28 23:33:00,
2013-10-28 18:38:00,36.5,18.2,30.39,NE,45,0.9,1.1,47,0.00,,,0.00,VWS V14.01,2013-10-28 23:38:00,
2013-10-28 18:43:00,36.3,18.0,30.39,East,90,0.0,1.6,47,0.00,,,0.00,VWS V14.01,2013-10-28 23:43:00,
2013-10-28 18:48:00,36.0,17.7,30.39,East,90,0.0,1.6,47,0.00,,,0.00,VWS V14.01,2013-10-28 23:48:00,
2013-10-28 18:53:00,35.8,18.0,30.41,ENE,68,0.0,1.3,48,0.00,,,0.00,VWS V14.01,2013-10-28 23:53:00,
2013-10-28 18:59:00,35.6,17.9,30.41,ENE,68,0.0,1.6,48,0.00,,,0.00,VWS V14.01,2013-10-28 23:59:00,
2013-10-28 19:04:00,35.4,17.7,30.41,East,90,0.0,2.2,48,0.00,,,0.00,VWS V14.01,2013-10-29 00:04:00,
2013-10-28 19:09:00,35.1,17.8,30.41,ENE,68,2.0,2.2,49,0.00,,,0.00,VWS V14.01,2013-10-29 00:09:00,
2013-10-28 19:14:00,34.9,17.7,30.41,ENE,68,0.0,2.2,49,0.00,,,0.00,VWS V14.01,2013-10-29 00:14:00,
2013-10-28 19:19:00,34.7,17.5,30.41,ENE,68,2.0,2.0,49,0.00,,,0.00,VWS V14.01,2013-10-29 00:19:00,
2013-10-28 19:24:00,34.5,17.8,30.41,ENE,68,0.0,0.0,50,0.00,,,0.00,VWS V14.01,2013-10-29 00:24:00,
2013-10-28 19:29:00,34.0,17.3,30.41,ENE,68,0.0,0.0,50,0.00,,,0.00,VWS V14.01,2013-10-29 00:29:00,
2013-10-28 19:34:00,33.6,17.4,30.41,ENE,68,0.0,0.0,51,0.00,,,0.00,VWS V14.01,2013-10-29 00:34:00,
2013-10-28 19:40:00,33.1,16.9,30.41,ENE,68,0.0,0.0,51,0.00,,,0.00,VWS V14.01,2013-10-29 00:40:00,
2013-10-28 19:45:00,32.7,16.6,30.41,ENE,68,0.0,0.0,51,0.00,,,0.00,VWS V14.01,2013-10-29 00:45:00,
2013-10-28 19:50:00,32.2,16.1,30.41,ENE,68,0.0,0.0,51,0.00,,,0.00,VWS V14.01,2013-10-29 00:50:00,
2013-10-28 19:55:00,31.6,16.0,30.41,ENE,68,0.0,0.0,52,0.00,,,0.00,VWS V14.01,2013-10-29 00:55:00,
2013-10-28 20:00:00,31.3,15.7,30.41,ENE,68,0.0,0.0,52,0.00,,,0.00,VWS V14.01,2013-10-29 01:00:00,
2013-10-28 20:05:00,30.7,15.2,30.41,ENE,68,0.0,0.0,52,0.00,,,0.00,VWS V14.01,2013-10-29 01:05:00,
2013-10-28 20:10:00,30.2,15.1,30.41,ENE,68,0.0,0.0,53,0.00,,,0.00,VWS V14.01,2013-10-29 01:10:00,
2013-10-28 20:15:00,30.2,15.1,30.41,ENE,68,0.0,0.0,53,0.00,,,0.00,VWS V14.01,2013-10-29 01:15:00,
2013-10-28 20:20:00,29.5,14.9,30.41,ENE,68,0.0,0.0,54,0.00,,,0.00,VWS V14.01,2013-10-29 01:20:00,
2013-10-28 20:26:00,29.1,14.6,30.41,ENE,68,0.0,0.0,54,0.00,,,0.00,VWS V14.01,2013-10-29 01:26:00,
2013-10-28 20:31:00,28.6,14.1,30.41,ENE,68,0.0,0.0,54,0.00,,,0.00,VWS V14.01,2013-10-29 01:31:00,
2013-10-28 20:36:00,28.4,14.3,30.41,ENE,68,0.0,0.0,55,0.00,,,0.00,VWS V14.01,2013-10-29 01:36:00,
2013-10-28 20:41:00,28.0,14.0,30.41,ENE,68,0.0,0.0,55,0.00,,,0.00,VWS V14.01,2013-10-29 01:41:00,
2013-10-28 20:46:00,27.9,14.2,30.41,ENE,68,0.0,0.0,56,0.00,,,0.00,VWS V14.01,2013-10-29 01:46:00,
2013-10-28 20:51:00,27.5,14.3,30.41,ENE,68,0.0,0.0,57,0.00,,,0.00,VWS V14.01,2013-10-29 01:51:00,
2013-10-28 20:56:00,27.1,14.3,30.41,ENE,68,0.0,0.0,58,0.00,,,0.00,VWS V14.01,2013-10-29 01:56:00,
2013-10-28 21:01:00,27.0,14.2,30.41,ENE,68,0.0,0.0,58,0.00,,,0.00,VWS V14.01,2013-10-29 02:01:00,
2013-10-28 21:06:00,26.8,14.0,30.41,ENE,68,0.0,0.0,58,0.00,,,0.00,VWS V14.01,2013-10-29 02:06:00,
2013-10-28 21:12:00,26.8,14.0,30.41,ENE,68,0.0,0.0,58,0.00,,,0.00,VWS V14.01,2013-10-29 02:12:00,
2013-10-28 21:17:00,26.2,14.6,30.41,ENE,68,0.0,0.0,61,0.00,,,0.00,VWS V14.01,2013-10-29 02:17:00,
2013-10-28 21:22:00,26.1,14.5,30.41,ENE,68,0.0,0.0,61,0.00,,,0.00,VWS V14.01,2013-10-29 02:22:00,
2013-10-28 21:27:00,25.9,14.3,30.41,ENE,68,0.0,0.0,61,0.00,,,0.00,VWS V14.01,2013-10-29 02:27:00,
2013-10-28 21:32:00,25.9,14.3,30.41,ENE,68,0.0,0.0,61,0.00,,,0.00,VWS V14.01,2013-10-29 02:32:00,
2013-10-28 21:37:00,25.9,14.3,30.41,ENE,68,0.0,0.0,61,0.00,,,0.00,VWS V14.01,2013-10-29 02:37:00,
2013-10-28 21:43:00,25.9,14.7,30.41,ENE,68,0.0,0.0,62,0.00,,,0.00,VWS V14.01,2013-10-29 02:43:00,
2013-10-28 21:48:00,25.7,14.5,30.41,ENE,68,0.0,0.0,62,0.00,,,0.00,VWS V14.01,2013-10-29 02:48:00,
2013-10-28 21:53:00,25.7,14.5,30.41,ENE,68,0.0,0.0,62,0.00,,,0.00,VWS V14.01,2013-10-29 02:53:00,
2013-10-28 21:58:00,25.3,14.2,30.41,ENE,68,0.0,0.0,62,0.00,,,0.00,VWS V14.01,2013-10-29 02:58:00,
2013-10-28 22:03:00,25.2,14.0,30.41,ENE,68,0.0,0.0,62,0.00,,,0.00,VWS V14.01,2013-10-29 03:03:00,
2013-10-28 22:08:00,25.2,14.0,30.41,ENE,68,0.0,0.0,62,0.00,,,0.00,VWS V14.01,2013-10-29 03:08:00,
2013-10-28 22:13:00,25.0,13.8,30.41,ENE,68,0.0,0.0,62,0.00,,,0.00,VWS V14.01,2013-10-29 03:13:00,
2013-10-28 22:18:00,24.8,14.0,30.41,ENE,68,0.0,0.0,63,0.00,,,0.00,VWS V14.01,2013-10-29 03:18:00,
2013-10-28 22:24:00,24.8,14.0,30.41,ENE,68,0.0,0.0,63,0.00,,,0.00,VWS V14.01,2013-10-29 03:24:00,
2013-10-28 22:29:00,24.6,13.8,30.41,ENE,68,0.0,0.0,63,0.00,,,0.00,VWS V14.01,2013-10-29 03:29:00,
2013-10-28 22:34:00,24.6,14.2,30.41,ENE,68,0.0,0.0,64,0.00,,,0.00,VWS V14.01,2013-10-29 03:34:00,
2013-10-28 22:39:00,24.6,14.6,30.41,ENE,68,0.0,0.0,65,0.00,,,0.00,VWS V14.01,2013-10-29 03:39:00,
2013-10-28 22:44:00,24.8,14.7,30.41,ENE,68,0.0,0.0,65,0.00,,,0.00,VWS V14.01,2013-10-29 03:44:00,
2013-10-28 22:49:00,24.8,14.7,30.41,ENE,68,0.0,0.0,65,0.00,,,0.00,VWS V14.01,2013-10-29 03:49:00,
2013-10-28 22:54:00,24.8,15.1,30.41,ENE,68,0.0,0.0,66,0.00,,,0.00,VWS V14.01,2013-10-29 03:54:00,
2013-10-28 23:00:00,25.0,15.2,30.41,ENE,68,0.0,0.0,66,0.00,,,0.00,VWS V14.01,2013-10-29 04:00:00,
2013-10-28 23:01:00,25.0,15.2,30.41,ENE,68,0.0,0.0,66,0.00,,,0.00,VWS V14.01,2013-10-29 04:01:00,
2013-10-28 23:02:00,25.0,15.2,30.41,ENE,68,0.0,0.0,66,0.00,,,0.00,VWS V14.01,2013-10-29 04:02:00,
2013-10-28 23:05:00,25.0,15.2,30.41,ENE,68,0.0,0.0,66,0.00,,,0.00,VWS V14.01,2013-10-29 04:05:00,
2013-10-28 23:07:00,24.8,15.1,30.41,ENE,68,0.0,0.0,66,0.00,,,0.00,VWS V14.01,2013-10-29 04:07:00,
2013-10-28 23:12:00,24.8,15.4,30.41,ENE,68,0.0,0.0,67,0.00,,,0.00,VWS V14.01,2013-10-29 04:12:00,
2013-10-28 23:17:00,24.8,16.1,30.41,ENE,68,0.0,0.0,69,0.00,,,0.00,VWS V14.01,2013-10-29 04:17:00,
2013-10-28 23:22:00,25.0,15.9,30.41,ENE,68,0.0,0.0,68,0.00,,,0.00,VWS V14.01,2013-10-29 04:22:00,
2013-10-28 23:27:00,25.0,16.3,30.41,ENE,68,0.0,0.0,69,0.00,,,0.00,VWS V14.01,2013-10-29 04:27:00,
2013-10-28 23:32:00,25.0,16.3,30.41,ENE,68,0.0,0.0,69,0.00,,,0.00,VWS V14.01,2013-10-29 04:32:00,
2013-10-28 23:37:00,25.0,16.3,30.41,ENE,68,0.0,0.0,69,0.00,,,0.00,VWS V14.01,2013-10-29 04:37:00,
2013-10-28 23:43:00,25.0,16.3,30.41,ENE,68,0.0,0.0,69,0.00,,,0.00,VWS V14.01,2013-10-29 04:43:00,
2013-10-28 23:48:00,25.0,16.3,30.41,ENE,68,0.0,0.0,69,0.00,,,0.00,VWS V14.01,2013-10-29 04:48:00,
2013-10-28 23:53:00,24.8,16.1,30.41,ENE,68,0.0,0.0,69,0.00,,,0.00,VWS V14.01,2013-10-29 04:53:00,
2013-10-28 23:58:00,24.8,16.1,30.41,ENE,68,0.0,0.0,69,0.00,,,0.00,VWS V14.01,2013-10-29 04:58:00,